Time,TemperatureF,DewpointF,PressureIn,WindDirection,WindDirectionDegrees,WindSpeedMPH,WindSpeedGustMPH,Humidity,HourlyPrecipIn,Conditions,Clouds,dailyrainin,SolarRadiationWatts/m^2,SoftwareType,DateUTC
2013-07-13 00:03:00,66.8,59.0,30.15,SE,144,8.0,8.0,76,0.00,,,0.00,0,Wunderground v.1.15,2013-07-13 05:03:00,
2013-07-13 00:08:00,67.0,59.2,30.15,SSE,154,10.0,10.0,76,0.00,,,0.00,0,Wunderground v.1.15,2013-07-13 05:08:00,
2013-07-13 00:14:00,67.0,58.8,30.15,SSE,162,6.0,10.0,75,0.00,,,0.00,0,Wunderground v.1.15,2013-07-13 05:14:00,
2013-07-13 00:19:00,66.9,58.7,30.16,SSE,159,8.0,10.0,75,0.00,,,0.00,0,Wunderground v.1.15,2013-07-13 05:19:00,
2013-07-13 00:25:00,66.7,58.9,30.15,SSE,158,6.0,8.0,76,0.00,,,0.00,0,Wunderground v.1.15,2013-07-13 05:25:00,
2013-07-13 00:30:00,66.5,58.7,30.16,SE,138,6.0,7.0,76,0.00,,,0.00,0,Wunderground v.1.15,2013-07-13 05:30:00,
2013-07-13 00:35:00,66.4,58.2,30.16,SSE,147,6.0,8.0,75,0.00,,,0.00,0,Wunderground v.1.15,2013-07-13 05:35:00,
2013-07-13 00:41:00,66.3,58.1,30.16,SSE,165,6.0,7.0,75,0.00,,,0.00,0,Wunderground v.1.15,2013-07-13 05:41:00,
2013-07-13 00:46:00,66.2,58.0,30.16,SSE,152,7.0,9.0,75,0.00,,,0.00,0,Wunderground v.1.15,2013-07-13 05:46:00,
2013-07-13 00:51:00,66.1,57.9,30.16,SSE,150,5.0,10.0,75,0.00,,,0.00,0,Wunderground v.1.15,2013-07-13 05:51:00,
2013-07-13 00:57:00,66.0,57.5,30.16,SE,140,7.0,10.0,74,0.00,,,0.00,0,Wunderground v.1.15,2013-07-13 05:57:00,
2013-07-13 01:02:00,65.9,57.4,30.17,SSE,153,6.0,6.0,74,0.00,,,0.00,0,Wunderground v.1.15,2013-07-13 06:02:00,
2013-07-13 01:08:00,65.9,57.4,30.17,SSE,162,4.0,8.0,74,0.00,,,0.00,0,Wunderground v.1.15,2013-07-13 06:08:00,
2013-07-13 01:13:00,65.8,57.7,30.17,SSE,167,8.0,8.0,75,0.00,,,0.00,0,Wunderground v.1.15,2013-07-13 06:13:00,
2013-07-13 01:19:00,65.6,57.5,30.17,South,178,4.0,8.0,75,0.00,,,0.00,0,Wunderground v.1.15,2013-07-13 06:19:00,
2013-07-13 01:24:00,65.4,57.6,30.17,South,179,0.0,5.0,76,0.00,,,0.00,0,Wunderground v.1.15,2013-07-13 06:24:00,
2013-07-13 01:30:00,65.2,57.8,30.18,South,179,0.0,1.0,77,0.00,,,0.00,0,Wunderground v.1.15,2013-07-13 06:30:00,
2013-07-13 01:35:00,65.0,58.0,30.17,South,179,0.0,4.0,78,0.00,,,0.00,0,Wunderground v.1.15,2013-07-13 06:35:00,
2013-07-13 01:40:00,64.8,57.8,30.18,South,179,2.0,2.0,78,0.00,,,0.00,0,Wunderground v.1.15,2013-07-13 06:40:00,
2013-07-13 01:46:00,64.6,57.6,30.17,South,178,4.0,5.0,78,0.00,,,0.00,0,Wunderground v.1.15,2013-07-13 06:46:00,
2013-07-13 01:51:00,64.5,57.8,30.17,South,175,0.0,2.0,79,0.00,,,0.00,0,Wunderground v.1.15,2013-07-13 06:51:00,
2013-07-13 01:57:00,64.3,57.6,30.18,South,175,0.0,2.0,79,0.00,,,0.00,0,Wunderground v.1.15,2013-07-13 06:57:00,
2013-07-13 02:02:00,64.2,57.5,30.18,South,175,0.0,0.0,79,0.00,,,0.00,0,Wunderground v.1.15,2013-07-13 07:02:00,
2013-07-13 02:07:00,64.0,57.4,30.18,South,175,2.0,4.0,79,0.00,,,0.00,0,Wunderground v.1.15,2013-07-13 07:07:00,
2013-07-13 02:12:00,63.9,57.6,30.18,South,176,0.0,5.0,80,0.00,,,0.00,0,Wunderground v.1.15,2013-07-13 07:12:00,
2013-07-13 02:17:00,63.8,57.5,30.18,South,176,0.0,5.0,80,0.00,,,0.00,0,Wunderground v.1.15,2013-07-13 07:17:00,
2013-07-13 02:22:00,63.9,57.6,30.18,South,169,7.0,7.0,80,0.00,,,0.00,0,Wunderground v.1.15,2013-07-13 07:22:00,
2013-07-13 02:27:00,63.9,57.6,30.18,SSE,163,1.0,7.0,80,0.00,,,0.00,0,Wunderground v.1.15,2013-07-13 07:27:00,
2013-07-13 02:32:00,63.9,57.6,30.18,SSE,159,4.0,6.0,80,0.00,,,0.00,0,Wunderground v.1.15,2013-07-13 07:32:00,
2013-07-13 02:37:00,63.9,57.6,30.18,SSE,160,0.0,6.0,80,0.00,,,0.00,0,Wunderground v.1.15,2013-07-13 07:37:00,
2013-07-13 02:42:00,63.8,57.5,30.17,SSE,160,0.0,2.0,80,0.00,,,0.00,0,Wunderground v.1.15,2013-07-13 07:42:00,
2013-07-13 02:47:00,63.8,57.5,30.17,SSE,160,0.0,2.0,80,0.00,,,0.00,0,Wunderground v.1.15,2013-07-13 07:47:00,
2013-07-13 02:52:00,63.7,57.4,30.17,South,171,5.0,8.0,80,0.00,,,0.00,0,Wunderground v.1.15,2013-07-13 07:52:00,
2013-07-13 02:57:00,63.6,57.0,30.17,South,169,4.0,8.0,79,0.00,,,0.00,0,Wunderground v.1.15,2013-07-13 07:57:00,
2013-07-13 03:02:00,63.5,57.2,30.16,SSE,165,7.0,7.0,80,0.00,,,0.00,0,Wunderground v.1.15,2013-07-13 08:02:00,
2013-07-13 03:07:00,63.4,57.1,30.16,SSE,162,0.0,8.0,80,0.00,,,0.00,0,Wunderground v.1.15,2013-07-13 08:07:00,
2013-07-13 03:12:00,63.4,56.8,30.15,SSE,160,6.0,6.0,79,0.00,,,0.00,0,Wunderground v.1.15,2013-07-13 08:12:00,
2013-07-13 03:17:00,63.4,56.4,30.16,SSE,162,5.0,8.0,78,0.00,,,0.00,0,Wunderground v.1.15,2013-07-13 08:17:00,
2013-07-13 03:22:00,63.5,56.5,30.16,SSE,163,5.0,6.0,78,0.00,,,0.00,0,Wunderground v.1.15,2013-07-13 08:22:00,
2013-07-13 03:27:00,63.6,56.6,30.16,SSE,150,4.0,7.0,78,0.00,,,0.00,0,Wunderground v.1.15,2013-07-13 08:27:00,
2013-07-13 03:32:00,63.7,56.4,30.17,SSE,158,5.0,7.0,77,0.00,,,0.00,0,Wunderground v.1.15,2013-07-13 08:32:00,
2013-07-13 03:37:00,63.8,56.4,30.17,SE,146,4.0,8.0,77,0.00,,,0.00,0,Wunderground v.1.15,2013-07-13 08:37:00,
2013-07-13 03:42:00,63.8,56.4,30.17,SSE,151,7.0,7.0,77,0.00,,,0.00,0,Wunderground v.1.15,2013-07-13 08:42:00,
2013-07-13 03:48:00,63.8,56.8,30.17,SE,145,2.0,8.0,78,0.00,,,0.00,0,Wunderground v.1.15,2013-07-13 08:48:00,
2013-07-13 03:53:00,63.6,56.6,30.18,SE,146,0.0,5.0,78,0.00,,,0.00,0,Wunderground v.1.15,2013-07-13 08:53:00,
2013-07-13 03:58:00,63.5,56.9,30.18,SE,146,1.0,5.0,79,0.00,,,0.00,0,Wunderground v.1.15,2013-07-13 08:58:00,
2013-07-13 04:03:00,63.4,56.8,30.19,SE,146,0.0,5.0,79,0.00,,,0.00,0,Wunderground v.1.15,2013-07-13 09:03:00,
2013-07-13 04:08:00,63.3,57.0,30.18,SE,146,0.0,5.0,80,0.00,,,0.00,0,Wunderground v.1.15,2013-07-13 09:08:00,
2013-07-13 04:13:00,63.1,56.8,30.18,SE,146,0.0,1.0,80,0.00,,,0.00,0,Wunderground v.1.15,2013-07-13 09:13:00,
2013-07-13 04:18:00,63.0,57.1,30.18,SE,146,0.0,1.0,81,0.00,,,0.00,0,Wunderground v.1.15,2013-07-13 09:18:00,
2013-07-13 04:23:00,62.8,56.9,30.18,SE,146,0.0,0.0,81,0.00,,,0.00,0,Wunderground v.1.15,2013-07-13 09:23:00,
2013-07-13 04:28:00,62.7,57.1,30.18,SE,146,0.0,0.0,82,0.00,,,0.00,0,Wunderground v.1.15,2013-07-13 09:28:00,
2013-07-13 04:33:00,62.4,56.8,30.18,SE,146,0.0,0.0,82,0.00,,,0.00,0,Wunderground v.1.15,2013-07-13 09:33:00,
2013-07-13 04:38:00,62.2,57.0,30.17,SE,146,0.0,0.0,83,0.00,,,0.00,0,Wunderground v.1.15,2013-07-13 09:38:00,
2013-07-13 04:43:00,62.0,57.1,30.17,SE,146,0.0,0.0,84,0.00,,,0.00,0,Wunderground v.1.15,2013-07-13 09:43:00,
2013-07-13 04:48:00,61.8,56.9,30.18,SE,146,0.0,0.0,84,0.00,,,0.00,0,Wunderground v.1.15,2013-07-13 09:48:00,
2013-07-13 04:53:00,61.7,56.8,30.18,SE,146,0.0,0.0,84,0.00,,,0.00,0,Wunderground v.1.15,2013-07-13 09:53:00,
2013-07-13 04:58:00,61.6,56.7,30.17,SSE,148,5.0,6.0,84,0.00,,,0.00,0,Wunderground v.1.15,2013-07-13 09:58:00,
2013-07-13 05:03:00,61.6,56.7,30.17,SSE,148,5.0,6.0,84,0.00,,,0.00,0,Wunderground v.1.15,2013-07-13 10:03:00,
2013-07-13 05:08:00,61.6,56.7,30.17,SSE,148,0.0,6.0,84,0.00,,,0.00,0,Wunderground v.1.15,2013-07-13 10:08:00,
2013-07-13 05:13:00,61.7,56.8,30.17,SSE,147,0.0,6.0,84,0.00,,,0.00,0,Wunderground v.1.15,2013-07-13 10:13:00,
2013-07-13 05:18:00,61.8,56.9,30.17,SSE,147,1.0,6.0,84,0.00,,,0.00,7,Wunderground v.1.15,2013-07-13 10:18:00,
2013-07-13 05:23:00,61.8,56.9,30.16,SSE,147,0.0,5.0,84,0.00,,,0.00,9,Wunderground v.1.15,2013-07-13 10:23:00,
2013-07-13 05:28:00,61.8,56.6,30.16,SSE,147,0.0,5.0,83,0.00,,,0.00,14,Wunderground v.1.15,2013-07-13 10:28:00,
2013-07-13 05:33:00,61.7,56.8,30.17,SSE,147,0.0,1.0,84,0.00,,,0.00,16,Wunderground v.1.15,2013-07-13 10:33:00,
2013-07-13 05:38:00,61.6,57.0,30.17,SSE,147,0.0,1.0,85,0.00,,,0.00,23,Wunderground v.1.15,2013-07-13 10:38:00,
2013-07-13 05:43:00,61.3,56.8,30.17,SSE,147,0.0,0.0,85,0.00,,,0.00,26,Wunderground v.1.15,2013-07-13 10:43:00,
2013-07-13 05:48:00,61.1,56.9,30.18,SSE,148,1.0,4.0,86,0.00,,,0.00,28,Wunderground v.1.15,2013-07-13 10:48:00,
2013-07-13 05:53:00,61.0,56.8,30.19,SSE,148,0.0,4.0,86,0.00,,,0.00,30,Wunderground v.1.15,2013-07-13 10:53:00,
2013-07-13 05:58:00,61.2,57.3,30.19,SSE,153,0.0,6.0,87,0.00,,,0.00,37,Wunderground v.1.15,2013-07-13 10:58:00,
2013-07-13 06:03:00,61.7,57.8,30.20,South,186,5.0,8.0,87,0.00,,,0.00,46,Wunderground v.1.15,2013-07-13 11:03:00,
2013-07-13 06:08:00,62.1,57.9,30.20,SSE,159,7.0,8.0,86,0.00,,,0.00,54,Wunderground v.1.15,2013-07-13 11:08:00,
2013-07-13 06:13:00,62.5,57.9,30.20,SSE,159,7.0,8.0,85,0.00,,,0.00,69,Wunderground v.1.15,2013-07-13 11:13:00,
2013-07-13 06:18:00,62.8,57.9,30.20,SSE,155,6.0,8.0,84,0.00,,,0.00,86,Wunderground v.1.15,2013-07-13 11:18:00,
2013-07-13 06:23:00,63.1,58.2,30.20,SSE,165,7.0,9.0,84,0.00,,,0.00,97,Wunderground v.1.15,2013-07-13 11:23:00,
2013-07-13 06:28:00,63.5,58.2,30.20,SSE,151,7.0,10.0,83,0.00,,,0.00,102,Wunderground v.1.15,2013-07-13 11:28:00,
2013-07-13 06:33:00,63.8,58.2,30.20,South,174,6.0,9.0,82,0.00,,,0.00,104,Wunderground v.1.15,2013-07-13 11:33:00,
2013-07-13 06:38:00,64.0,58.4,30.20,South,169,7.0,11.0,82,0.00,,,0.00,105,Wunderground v.1.15,2013-07-13 11:38:00,
2013-07-13 06:43:00,64.3,58.7,30.19,SSE,168,2.0,8.0,82,0.00,,,0.00,107,Wunderground v.1.15,2013-07-13 11:43:00,
2013-07-13 06:48:00,64.5,58.9,30.19,South,171,2.0,9.0,82,0.00,,,0.00,107,Wunderground v.1.15,2013-07-13 11:48:00,
2013-07-13 06:53:00,64.7,59.4,30.19,SSW,198,0.0,6.0,83,0.00,,,0.00,107,Wunderground v.1.15,2013-07-13 11:53:00,
2013-07-13 06:58:00,65.0,59.4,30.19,South,172,6.0,9.0,82,0.00,,,0.00,113,Wunderground v.1.15,2013-07-13 11:58:00,
2013-07-13 07:03:00,65.3,59.3,30.19,SSE,148,6.0,8.0,81,0.00,,,0.00,120,Wunderground v.1.15,2013-07-13 12:03:00,
2013-07-13 07:08:00,65.6,59.6,30.19,South,177,7.0,9.0,81,0.00,,,0.00,128,Wunderground v.1.15,2013-07-13 12:08:00,
2013-07-13 07:13:00,65.7,59.7,30.19,South,176,4.0,7.0,81,0.00,,,0.00,141,Wunderground v.1.15,2013-07-13 12:13:00,
2013-07-13 07:18:00,65.8,59.8,30.20,South,172,6.0,10.0,81,0.00,,,0.00,155,Wunderground v.1.15,2013-07-13 12:18:00,
2013-07-13 07:23:00,65.9,59.9,30.20,South,180,4.0,10.0,81,0.00,,,0.00,169,Wunderground v.1.15,2013-07-13 12:23:00,
2013-07-13 07:28:00,66.0,60.0,30.21,South,190,5.0,12.0,81,0.00,,,0.00,185,Wunderground v.1.15,2013-07-13 12:28:00,
2013-07-13 07:34:00,66.3,60.3,30.21,SSW,192,6.0,10.0,81,0.00,,,0.00,193,Wunderground v.1.15,2013-07-13 12:34:00,
2013-07-13 07:39:00,66.6,60.9,30.21,South,175,5.0,10.0,82,0.00,,,0.00,213,Wunderground v.1.15,2013-07-13 12:39:00,
2013-07-13 07:44:00,66.8,60.8,30.20,SSE,152,8.0,9.0,81,0.00,,,0.00,271,Wunderground v.1.15,2013-07-13 12:44:00,
2013-07-13 07:49:00,67.1,61.1,30.21,South,186,3.0,10.0,81,0.00,,,0.00,221,Wunderground v.1.15,2013-07-13 12:49:00,
2013-07-13 07:54:00,67.3,61.3,30.21,SSW,198,5.0,8.0,81,0.00,,,0.00,195,Wunderground v.1.15,2013-07-13 12:54:00,
2013-07-13 07:59:00,67.4,61.4,30.22,South,178,7.0,9.0,81,0.00,,,0.00,185,Wunderground v.1.15,2013-07-13 12:59:00,
2013-07-13 08:04:00,67.6,61.6,30.22,South,182,5.0,12.0,81,0.00,,,0.00,183,Wunderground v.1.15,2013-07-13 13:04:00,
2013-07-13 08:09:00,67.7,61.7,30.23,South,188,4.0,12.0,81,0.00,,,0.00,190,Wunderground v.1.15,2013-07-13 13:09:00,
2013-07-13 08:14:00,67.9,61.9,30.22,SSE,164,8.0,8.0,81,0.00,,,0.00,199,Wunderground v.1.15,2013-07-13 13:14:00,
2013-07-13 08:19:00,68.1,62.0,30.22,South,190,6.0,10.0,81,0.00,,,0.00,207,Wunderground v.1.15,2013-07-13 13:19:00,
2013-07-13 08:24:00,68.3,62.2,30.23,South,180,5.0,10.0,81,0.00,,,0.00,216,Wunderground v.1.15,2013-07-13 13:24:00,
2013-07-13 08:29:00,68.5,62.4,30.22,South,181,0.0,10.0,81,0.00,,,0.00,225,Wunderground v.1.15,2013-07-13 13:29:00,
2013-07-13 08:34:00,68.7,62.6,30.22,South,179,5.0,7.0,81,0.00,,,0.00,243,Wunderground v.1.15,2013-07-13 13:34:00,
2013-07-13 08:39:00,68.9,62.5,30.22,South,170,5.0,8.0,80,0.00,,,0.00,264,Wunderground v.1.15,2013-07-13 13:39:00,
2013-07-13 08:44:00,69.1,62.7,30.22,South,178,7.0,9.0,80,0.00,,,0.00,295,Wunderground v.1.15,2013-07-13 13:44:00,
2013-07-13 08:49:00,69.3,62.5,30.22,South,169,4.0,9.0,79,0.00,,,0.00,334,Wunderground v.1.15,2013-07-13 13:49:00,
2013-07-13 08:54:00,69.6,63.2,30.22,SSE,165,5.0,9.0,80,0.00,,,0.00,355,Wunderground v.1.15,2013-07-13 13:54:00,
2013-07-13 08:59:00,69.9,62.7,30.22,South,174,9.0,11.0,78,0.00,,,0.00,383,Wunderground v.1.15,2013-07-13 13:59:00,
2013-07-13 09:04:00,70.2,63.4,30.21,SE,143,4.0,9.0,79,0.00,,,0.00,429,Wunderground v.1.15,2013-07-13 14:04:00,
2013-07-13 09:09:00,70.6,63.8,30.22,South,183,7.0,9.0,79,0.00,,,0.00,473,Wunderground v.1.15,2013-07-13 14:09:00,
2013-07-13 09:14:00,71.1,63.5,30.22,SSE,163,4.0,14.0,77,0.00,,,0.00,504,Wunderground v.1.15,2013-07-13 14:14:00,
2013-07-13 09:19:00,71.5,63.9,30.22,SSE,158,9.0,14.0,77,0.00,,,0.00,520,Wunderground v.1.15,2013-07-13 14:19:00,
2013-07-13 09:24:00,71.7,63.7,30.22,South,182,7.0,10.0,76,0.00,,,0.00,578,Wunderground v.1.15,2013-07-13 14:24:00,
2013-07-13 09:29:00,72.1,64.1,30.22,South,189,5.0,6.0,76,0.00,,,0.00,582,Wunderground v.1.15,2013-07-13 14:29:00,
2013-07-13 09:35:00,72.4,63.6,30.22,South,177,7.0,10.0,74,0.00,,,0.00,591,Wunderground v.1.15,2013-07-13 14:35:00,
2013-07-13 09:40:00,72.7,64.3,30.22,SSW,211,6.0,7.0,75,0.00,,,0.00,679,Wunderground v.1.15,2013-07-13 14:40:00,
2013-07-13 09:45:00,73.1,64.3,30.22,South,183,4.0,7.0,74,0.00,,,0.00,679,Wunderground v.1.15,2013-07-13 14:45:00,
2013-07-13 09:50:00,73.5,64.3,30.22,South,180,8.0,8.0,73,0.00,,,0.00,638,Wunderground v.1.15,2013-07-13 14:50:00,
2013-07-13 09:55:00,73.9,64.7,30.22,South,182,5.0,9.0,73,0.00,,,0.00,670,Wunderground v.1.15,2013-07-13 14:55:00,
2013-07-13 10:00:00,74.3,65.5,30.22,SSW,196,5.0,6.0,74,0.00,,,0.00,738,Wunderground v.1.15,2013-07-13 15:00:00,
2013-07-13 10:05:00,74.7,65.5,30.22,South,173,2.0,12.0,73,0.00,,,0.00,550,Wunderground v.1.15,2013-07-13 15:05:00,
2013-07-13 10:10:00,74.8,64.8,30.22,South,178,7.0,8.0,71,0.00,,,0.00,596,Wunderground v.1.15,2013-07-13 15:10:00,
2013-07-13 10:15:00,74.8,64.8,30.22,SSW,196,5.0,9.0,71,0.00,,,0.00,501,Wunderground v.1.15,2013-07-13 15:15:00,
2013-07-13 10:20:00,74.5,64.9,30.22,South,177,9.0,9.0,72,0.00,,,0.00,538,Wunderground v.1.15,2013-07-13 15:20:00,
2013-07-13 10:25:00,74.5,65.3,30.22,South,178,8.0,10.0,73,0.00,,,0.00,724,Wunderground v.1.15,2013-07-13 15:25:00,
2013-07-13 10:30:00,74.8,65.6,30.22,SSW,210,5.0,6.0,73,0.00,,,0.00,735,Wunderground v.1.15,2013-07-13 15:30:00,
2013-07-13 10:35:00,75.3,65.2,30.22,South,185,6.0,9.0,71,0.00,,,0.00,865,Wunderground v.1.15,2013-07-13 15:35:00,
2013-07-13 10:40:00,75.4,65.3,30.22,SW,214,6.0,7.0,71,0.00,,,0.00,756,Wunderground v.1.15,2013-07-13 15:40:00,
2013-07-13 10:45:00,75.5,65.4,30.22,WSW,246,5.0,8.0,71,0.00,,,0.00,802,Wunderground v.1.15,2013-07-13 15:45:00,
2013-07-13 10:50:00,75.7,65.6,30.22,SSW,209,5.0,5.0,71,0.00,,,0.00,835,Wunderground v.1.15,2013-07-13 15:50:00,
2013-07-13 10:55:00,76.1,64.8,30.23,South,171,7.0,8.0,68,0.00,,,0.00,768,Wunderground v.1.15,2013-07-13 15:55:00,
2013-07-13 11:00:00,76.3,65.0,30.23,South,178,7.0,9.0,68,0.00,,,0.00,796,Wunderground v.1.15,2013-07-13 16:00:00,
2013-07-13 11:05:00,76.4,64.6,30.23,South,185,4.0,11.0,67,0.00,,,0.00,863,Wunderground v.1.15,2013-07-13 16:05:00,
2013-07-13 11:10:00,76.2,64.9,30.23,South,191,5.0,7.0,68,0.00,,,0.00,664,Wunderground v.1.15,2013-07-13 16:10:00,
2013-07-13 11:15:00,76.2,65.3,30.23,SW,232,7.0,10.0,69,0.00,,,0.00,796,Wunderground v.1.15,2013-07-13 16:15:00,
2013-07-13 11:20:00,76.3,64.5,30.23,SSW,207,9.0,9.0,67,0.00,,,0.00,970,Wunderground v.1.15,2013-07-13 16:20:00,
2013-07-13 11:25:00,76.6,65.2,30.23,South,191,2.0,11.0,68,0.00,,,0.00,946,Wunderground v.1.15,2013-07-13 16:25:00,
2013-07-13 11:30:00,76.8,65.0,30.23,South,180,7.0,8.0,67,0.00,,,0.00,867,Wunderground v.1.15,2013-07-13 16:30:00,
2013-07-13 11:35:00,77.0,65.2,30.23,SSW,192,6.0,10.0,67,0.00,,,0.00,963,Wunderground v.1.15,2013-07-13 16:35:00,
2013-07-13 11:40:00,77.2,65.4,30.23,SE,142,5.0,10.0,67,0.00,,,0.00,452,Wunderground v.1.15,2013-07-13 16:40:00,
2013-07-13 11:46:00,77.2,64.5,30.23,South,169,5.0,10.0,65,0.00,,,0.00,689,Wunderground v.1.15,2013-07-13 16:46:00,
2013-07-13 11:51:00,77.2,65.0,30.23,SSE,155,6.0,8.0,66,0.00,,,0.00,675,Wunderground v.1.15,2013-07-13 16:51:00,
2013-07-13 11:56:00,77.5,65.2,30.23,SW,217,2.0,8.0,66,0.00,,,0.00,877,Wunderground v.1.15,2013-07-13 16:56:00,
2013-07-13 12:01:00,77.7,64.5,30.23,South,182,5.0,9.0,64,0.00,,,0.00,552,Wunderground v.1.15,2013-07-13 17:01:00,
2013-07-13 12:06:00,77.4,65.1,30.22,SSW,203,1.0,9.0,66,0.00,,,0.00,555,Wunderground v.1.15,2013-07-13 17:06:00,
2013-07-13 12:11:00,77.3,65.1,30.22,SSW,206,4.0,4.0,66,0.00,,,0.00,810,Wunderground v.1.15,2013-07-13 17:11:00,
2013-07-13 12:16:00,77.6,64.9,30.22,SSE,160,5.0,10.0,65,0.00,,,0.00,930,Wunderground v.1.15,2013-07-13 17:16:00,
2013-07-13 12:21:00,78.0,65.3,30.22,SSW,211,8.0,8.0,65,0.00,,,0.00,921,Wunderground v.1.15,2013-07-13 17:21:00,
2013-07-13 12:26:00,77.9,66.1,30.22,SW,223,7.0,11.0,67,0.00,,,0.00,900,Wunderground v.1.15,2013-07-13 17:26:00,
2013-07-13 12:31:00,78.2,66.8,30.21,SSW,205,6.0,6.0,68,0.00,,,0.00,953,Wunderground v.1.15,2013-07-13 17:31:00,
2013-07-13 12:36:00,78.5,65.3,30.21,South,178,4.0,11.0,64,0.00,,,0.00,960,Wunderground v.1.15,2013-07-13 17:36:00,
2013-07-13 12:41:00,78.8,65.1,30.21,SSE,165,0.0,6.0,63,0.00,,,0.00,784,Wunderground v.1.15,2013-07-13 17:41:00,
2013-07-13 12:46:00,78.8,65.6,30.21,SSE,167,4.0,10.0,64,0.00,,,0.00,954,Wunderground v.1.15,2013-07-13 17:46:00,
2013-07-13 12:51:00,78.9,65.7,30.21,SSW,210,5.0,7.0,64,0.00,,,0.00,951,Wunderground v.1.15,2013-07-13 17:51:00,
2013-07-13 12:56:00,78.8,65.1,30.21,SSE,162,7.0,11.0,63,0.00,,,0.00,953,Wunderground v.1.15,2013-07-13 17:56:00,
2013-07-13 13:01:00,79.0,65.3,30.21,SE,130,1.0,8.0,63,0.00,,,0.00,951,Wunderground v.1.15,2013-07-13 18:01:00,
2013-07-13 13:06:00,79.5,64.9,30.20,SE,144,9.0,9.0,61,0.00,,,0.00,940,Wunderground v.1.15,2013-07-13 18:06:00,
2013-07-13 13:11:00,79.8,66.5,30.21,SSE,154,6.0,8.0,64,0.00,,,0.00,926,Wunderground v.1.15,2013-07-13 18:11:00,
2013-07-13 13:16:00,80.0,65.3,30.21,SE,146,7.0,14.0,61,0.00,,,0.00,886,Wunderground v.1.15,2013-07-13 18:16:00,
2013-07-13 13:22:00,80.1,65.9,30.20,SSE,153,7.0,9.0,62,0.00,,,0.00,891,Wunderground v.1.15,2013-07-13 18:22:00,
2013-07-13 13:27:00,80.0,64.9,30.20,SSE,159,8.0,14.0,60,0.00,,,0.00,923,Wunderground v.1.15,2013-07-13 18:27:00,
2013-07-13 13:31:00,79.8,64.2,30.20,SSE,162,8.0,10.0,59,0.00,,,0.00,935,Wunderground v.1.15,2013-07-13 18:31:00,
2013-07-13 13:36:00,80.0,64.9,30.20,SSE,156,7.0,15.0,60,0.00,,,0.00,926,Wunderground v.1.15,2013-07-13 18:36:00,
2013-07-13 13:42:00,80.2,66.0,30.20,South,179,8.0,11.0,62,0.00,,,0.00,925,Wunderground v.1.15,2013-07-13 18:42:00,
2013-07-13 13:47:00,80.6,64.9,30.20,SSE,168,10.0,12.0,59,0.00,,,0.00,909,Wunderground v.1.15,2013-07-13 18:47:00,
2013-07-13 13:52:00,80.5,64.9,30.20,SSE,154,8.0,14.0,59,0.00,,,0.00,919,Wunderground v.1.15,2013-07-13 18:52:00,
2013-07-13 13:57:00,80.7,64.5,30.20,SSE,156,9.0,14.0,58,0.00,,,0.00,912,Wunderground v.1.15,2013-07-13 18:57:00,
2013-07-13 14:02:00,80.6,65.9,30.20,SE,130,8.0,11.0,61,0.00,,,0.00,916,Wunderground v.1.15,2013-07-13 19:02:00,
2013-07-13 14:07:00,80.7,65.0,30.20,South,171,10.0,13.0,59,0.00,,,0.00,919,Wunderground v.1.15,2013-07-13 19:07:00,
2013-07-13 14:12:00,80.8,64.1,30.20,SSE,164,6.0,11.0,57,0.00,,,0.00,916,Wunderground v.1.15,2013-07-13 19:12:00,
2013-07-13 14:17:00,80.8,65.1,30.20,South,173,10.0,12.0,59,0.00,,,0.00,911,Wunderground v.1.15,2013-07-13 19:17:00,
2013-07-13 14:22:00,81.0,65.3,30.20,SSE,156,11.0,14.0,59,0.00,,,0.00,928,Wunderground v.1.15,2013-07-13 19:22:00,
2013-07-13 14:27:00,81.2,63.5,30.20,SSE,156,5.0,14.0,55,0.00,,,0.00,896,Wunderground v.1.15,2013-07-13 19:27:00,
2013-07-13 14:32:00,81.2,65.5,30.20,SSE,148,10.0,12.0,59,0.00,,,0.00,919,Wunderground v.1.15,2013-07-13 19:32:00,
2013-07-13 14:37:00,81.1,64.9,30.20,SSE,149,8.0,13.0,58,0.00,,,0.00,905,Wunderground v.1.15,2013-07-13 19:37:00,
2013-07-13 14:42:00,81.1,63.9,30.20,South,183,11.0,13.0,56,0.00,,,0.00,912,Wunderground v.1.15,2013-07-13 19:42:00,
2013-07-13 14:47:00,81.2,65.5,30.20,SSE,154,7.0,13.0,59,0.00,,,0.00,895,Wunderground v.1.15,2013-07-13 19:47:00,
2013-07-13 14:52:00,81.4,64.7,30.20,South,173,7.0,10.0,57,0.00,,,0.00,882,Wunderground v.1.15,2013-07-13 19:52:00,
2013-07-13 14:57:00,81.6,64.4,30.20,South,173,4.0,10.0,56,0.00,,,0.00,874,Wunderground v.1.15,2013-07-13 19:57:00,
2013-07-13 15:02:00,81.7,66.5,30.20,SSE,167,7.0,8.0,60,0.00,,,0.00,863,Wunderground v.1.15,2013-07-13 20:02:00,
2013-07-13 15:07:00,81.7,65.0,30.20,SW,223,8.0,13.0,57,0.00,,,0.00,838,Wunderground v.1.15,2013-07-13 20:07:00,
2013-07-13 15:12:00,81.7,65.5,30.19,SSE,152,5.0,7.0,58,0.00,,,0.00,823,Wunderground v.1.15,2013-07-13 20:12:00,
2013-07-13 15:17:00,81.9,66.2,30.19,SSW,208,8.0,11.0,59,0.00,,,0.00,821,Wunderground v.1.15,2013-07-13 20:17:00,
2013-07-13 15:22:00,81.7,64.0,30.19,South,184,3.0,10.0,55,0.00,,,0.00,809,Wunderground v.1.15,2013-07-13 20:22:00,
2013-07-13 15:27:00,81.9,65.7,30.19,SSE,147,8.0,10.0,58,0.00,,,0.00,796,Wunderground v.1.15,2013-07-13 20:27:00,
2013-07-13 15:32:00,82.1,65.9,30.19,SE,140,6.0,8.0,58,0.00,,,0.00,782,Wunderground v.1.15,2013-07-13 20:32:00,
2013-07-13 15:37:00,82.1,64.8,30.19,SSE,158,6.0,12.0,56,0.00,,,0.00,777,Wunderground v.1.15,2013-07-13 20:37:00,
2013-07-13 15:42:00,82.1,63.8,30.19,SE,140,9.0,14.0,54,0.00,,,0.00,765,Wunderground v.1.15,2013-07-13 20:42:00,
2013-07-13 15:47:00,81.8,63.0,30.19,SE,144,6.0,14.0,53,0.00,,,0.00,747,Wunderground v.1.15,2013-07-13 20:47:00,
2013-07-13 15:52:00,81.8,64.6,30.19,East,92,4.0,13.0,56,0.00,,,0.00,744,Wunderground v.1.15,2013-07-13 20:52:00,
2013-07-13 15:57:00,81.8,64.6,30.19,ESE,110,9.0,13.0,56,0.00,,,0.00,731,Wunderground v.1.15,2013-07-13 20:57:00,
2013-07-13 16:02:00,81.6,64.4,30.19,SSE,154,8.0,10.0,56,0.00,,,0.00,717,Wunderground v.1.15,2013-07-13 21:02:00,
2013-07-13 16:07:00,81.8,64.6,30.19,SE,126,9.0,15.0,56,0.00,,,0.00,710,Wunderground v.1.15,2013-07-13 21:07:00,
2013-07-13 16:12:00,81.9,64.7,30.18,SSE,167,1.0,10.0,56,0.00,,,0.00,700,Wunderground v.1.15,2013-07-13 21:12:00,
2013-07-13 16:18:00,82.0,65.8,30.19,SE,146,2.0,10.0,58,0.00,,,0.00,691,Wunderground v.1.15,2013-07-13 21:18:00,
2013-07-13 16:23:00,82.4,65.6,30.19,SSE,163,6.0,8.0,57,0.00,,,0.00,671,Wunderground v.1.15,2013-07-13 21:23:00,
2013-07-13 16:28:00,82.4,64.1,30.19,SSE,150,10.0,11.0,54,0.00,,,0.00,501,Wunderground v.1.15,2013-07-13 21:28:00,
2013-07-13 16:33:00,82.2,64.4,30.19,SE,142,8.0,9.0,55,0.00,,,0.00,601,Wunderground v.1.15,2013-07-13 21:33:00,
2013-07-13 16:38:00,82.1,64.3,30.19,SE,144,4.0,9.0,55,0.00,,,0.00,635,Wunderground v.1.15,2013-07-13 21:38:00,
2013-07-13 16:43:00,82.2,64.4,30.19,SE,142,6.0,11.0,55,0.00,,,0.00,619,Wunderground v.1.15,2013-07-13 21:43:00,
2013-07-13 16:48:00,82.2,63.4,30.19,ESE,123,2.0,11.0,53,0.00,,,0.00,585,Wunderground v.1.15,2013-07-13 21:48:00,
2013-07-13 16:53:00,82.3,64.5,30.19,ESE,115,9.0,9.0,55,0.00,,,0.00,585,Wunderground v.1.15,2013-07-13 21:53:00,
2013-07-13 16:58:00,82.4,64.6,30.19,SSE,163,5.0,12.0,55,0.00,,,0.00,577,Wunderground v.1.15,2013-07-13 21:58:00,
2013-07-13 17:03:00,82.3,62.9,30.19,SE,132,4.0,9.0,52,0.00,,,0.00,557,Wunderground v.1.15,2013-07-13 22:03:00,
2013-07-13 17:08:00,82.3,64.5,30.19,SE,146,7.0,11.0,55,0.00,,,0.00,543,Wunderground v.1.15,2013-07-13 22:08:00,
2013-07-13 17:13:00,82.3,63.5,30.19,SSE,148,9.0,11.0,53,0.00,,,0.00,513,Wunderground v.1.15,2013-07-13 22:13:00,
2013-07-13 17:18:00,82.1,62.7,30.19,ESE,107,7.0,11.0,52,0.00,,,0.00,512,Wunderground v.1.15,2013-07-13 22:18:00,
2013-07-13 17:23:00,82.0,63.7,30.19,SE,124,5.0,11.0,54,0.00,,,0.00,501,Wunderground v.1.15,2013-07-13 22:23:00,
2013-07-13 17:28:00,81.9,62.5,30.19,SSE,155,4.0,11.0,52,0.00,,,0.00,490,Wunderground v.1.15,2013-07-13 22:28:00,
2013-07-13 17:33:00,82.0,63.2,30.19,South,170,8.0,8.0,53,0.00,,,0.00,475,Wunderground v.1.15,2013-07-13 22:33:00,
2013-07-13 17:38:00,82.2,63.4,30.18,SE,141,2.0,11.0,53,0.00,,,0.00,457,Wunderground v.1.15,2013-07-13 22:38:00,
2013-07-13 17:43:00,82.2,62.8,30.18,SE,128,7.0,9.0,52,0.00,,,0.00,446,Wunderground v.1.15,2013-07-13 22:43:00,
2013-07-13 17:48:00,82.2,63.9,30.18,SE,144,5.0,9.0,54,0.00,,,0.00,432,Wunderground v.1.15,2013-07-13 22:48:00,
2013-07-13 17:53:00,82.0,63.2,30.18,South,190,6.0,10.0,53,0.00,,,0.00,422,Wunderground v.1.15,2013-07-13 22:53:00,
2013-07-13 17:58:00,81.9,63.6,30.18,South,176,7.0,10.0,54,0.00,,,0.00,410,Wunderground v.1.15,2013-07-13 22:58:00,
2013-07-13 18:03:00,81.8,63.5,30.18,South,178,7.0,9.0,54,0.00,,,0.00,394,Wunderground v.1.15,2013-07-13 23:03:00,
2013-07-13 18:09:00,81.8,64.1,30.18,SSE,147,5.0,9.0,55,0.00,,,0.00,380,Wunderground v.1.15,2013-07-13 23:09:00,
2013-07-13 18:14:00,81.9,63.6,30.18,SE,140,1.0,7.0,54,0.00,,,0.00,357,Wunderground v.1.15,2013-07-13 23:14:00,
2013-07-13 18:19:00,81.8,63.5,30.18,SSE,156,5.0,9.0,54,0.00,,,0.00,345,Wunderground v.1.15,2013-07-13 23:19:00,
2013-07-13 18:24:00,81.7,63.4,30.18,SSE,148,5.0,9.0,54,0.00,,,0.00,334,Wunderground v.1.15,2013-07-13 23:24:00,
2013-07-13 18:29:00,81.6,62.8,30.19,SE,142,4.0,12.0,53,0.00,,,0.00,318,Wunderground v.1.15,2013-07-13 23:29:00,
2013-07-13 18:34:00,81.5,63.8,30.18,SE,141,5.0,8.0,55,0.00,,,0.00,299,Wunderground v.1.15,2013-07-13 23:34:00,
2013-07-13 18:39:00,81.5,64.3,30.18,SE,146,2.0,8.0,56,0.00,,,0.00,281,Wunderground v.1.15,2013-07-13 23:39:00,
2013-07-13 18:44:00,81.4,64.2,30.18,SSE,163,8.0,9.0,56,0.00,,,0.00,265,Wunderground v.1.15,2013-07-13 23:44:00,
2013-07-13 18:49:00,81.3,64.6,30.18,SSE,157,6.0,9.0,57,0.00,,,0.00,251,Wunderground v.1.15,2013-07-13 23:49:00,
2013-07-13 18:54:00,81.1,63.9,30.18,SE,132,2.0,8.0,56,0.00,,,0.00,227,Wunderground v.1.15,2013-07-13 23:54:00,
2013-07-13 18:59:00,80.9,64.2,30.18,SSE,148,7.0,9.0,57,0.00,,,0.00,213,Wunderground v.1.15,2013-07-13 23:59:00,
2013-07-13 19:04:00,80.7,64.5,30.18,East,92,5.0,7.0,58,0.00,,,0.00,190,Wunderground v.1.15,2013-07-14 00:04:00,
2013-07-13 19:09:00,80.5,64.4,30.18,ESE,106,2.0,8.0,58,0.00,,,0.00,171,Wunderground v.1.15,2013-07-14 00:09:00,
2013-07-13 19:14:00,80.2,64.1,30.18,ESE,103,5.0,8.0,58,0.00,,,0.00,153,Wunderground v.1.15,2013-07-14 00:14:00,
2013-07-13 19:19:00,79.8,64.2,30.18,ESE,103,2.0,8.0,59,0.00,,,0.00,74,Wunderground v.1.15,2013-07-14 00:19:00,
2013-07-13 19:24:00,79.4,63.3,30.18,ESE,119,1.0,11.0,58,0.00,,,0.00,53,Wunderground v.1.15,2013-07-14 00:24:00,
2013-07-13 19:29:00,78.9,62.9,30.18,SE,129,5.0,11.0,58,0.00,,,0.00,40,Wunderground v.1.15,2013-07-14 00:29:00,
2013-07-13 19:34:00,78.3,60.8,30.18,SE,126,4.0,11.0,55,0.00,,,0.00,35,Wunderground v.1.15,2013-07-14 00:34:00,
2013-07-13 19:39:00,77.9,59.9,30.18,ESE,105,5.0,11.0,54,0.00,,,0.00,33,Wunderground v.1.15,2013-07-14 00:39:00,
2013-07-13 19:44:00,77.6,59.6,30.18,SE,125,4.0,12.0,54,0.00,,,0.00,32,Wunderground v.1.15,2013-07-14 00:44:00,
2013-07-13 19:50:00,77.2,59.8,30.18,SE,127,0.0,4.0,55,0.00,,,0.00,28,Wunderground v.1.15,2013-07-14 00:50:00,
2013-07-13 19:54:00,76.8,59.9,30.19,East,98,0.0,5.0,56,0.00,,,0.00,19,Wunderground v.1.15,2013-07-14 00:54:00,
2013-07-13 19:55:00,76.8,59.9,30.19,East,98,0.0,5.0,56,0.00,,,0.00,19,Wunderground v.1.15,2013-07-14 00:55:00,
2013-07-13 20:00:00,76.5,60.1,30.18,East,98,0.0,1.0,57,0.00,,,0.00,18,Wunderground v.1.15,2013-07-14 01:00:00,
2013-07-13 20:05:00,76.0,60.6,30.18,East,98,1.0,4.0,59,0.00,,,0.00,14,Wunderground v.1.15,2013-07-14 01:05:00,
2013-07-13 20:10:00,75.6,60.7,30.18,East,96,0.0,0.0,60,0.00,,,0.00,12,Wunderground v.1.15,2013-07-14 01:10:00,
2013-07-13 20:15:00,75.1,60.7,30.19,East,96,0.0,1.0,61,0.00,,,0.00,11,Wunderground v.1.15,2013-07-14 01:15:00,
2013-07-13 20:20:00,74.7,60.4,30.19,ESE,115,2.0,2.0,61,0.00,,,0.00,9,Wunderground v.1.15,2013-07-14 01:20:00,
2013-07-13 20:25:00,74.2,60.3,30.19,ESE,105,0.0,4.0,62,0.00,,,0.00,7,Wunderground v.1.15,2013-07-14 01:25:00,
2013-07-13 20:30:00,73.8,60.0,30.19,East,94,1.0,1.0,62,0.00,,,0.00,5,Wunderground v.1.15,2013-07-14 01:30:00,
2013-07-13 20:35:00,73.4,59.6,30.19,ESE,112,0.0,6.0,62,0.00,,,0.00,0,Wunderground v.1.15,2013-07-14 01:35:00,
2013-07-13 20:40:00,73.1,59.8,30.19,ENE,75,1.0,1.0,63,0.00,,,0.00,0,Wunderground v.1.15,2013-07-14 01:40:00,
2013-07-13 20:45:00,72.7,59.4,30.19,ESE,114,1.0,6.0,63,0.00,,,0.00,0,Wunderground v.1.15,2013-07-14 01:45:00,
2013-07-13 20:50:00,72.3,59.9,30.19,ESE,107,0.0,0.0,65,0.00,,,0.00,0,Wunderground v.1.15,2013-07-14 01:50:00,
2013-07-13 20:55:00,71.9,59.9,30.19,ESE,106,0.0,1.0,66,0.00,,,0.00,0,Wunderground v.1.15,2013-07-14 01:55:00,
2013-07-13 21:00:00,71.4,59.9,30.20,ESE,106,0.0,1.0,67,0.00,,,0.00,0,Wunderground v.1.15,2013-07-14 02:00:00,
2013-07-13 21:05:00,71.0,59.5,30.19,East,100,1.0,5.0,67,0.00,,,0.00,0,Wunderground v.1.15,2013-07-14 02:05:00,
2013-07-13 21:11:00,70.7,59.2,30.19,East,87,2.0,5.0,67,0.00,,,0.00,0,Wunderground v.1.15,2013-07-14 02:11:00,
2013-07-13 21:16:00,70.6,59.1,30.20,East,95,1.0,5.0,67,0.00,,,0.00,0,Wunderground v.1.15,2013-07-14 02:16:00,
2013-07-13 21:21:00,70.5,59.0,30.19,ESE,116,0.0,1.0,67,0.00,,,0.00,0,Wunderground v.1.15,2013-07-14 02:21:00,
2013-07-13 21:26:00,70.3,58.8,30.20,East,92,0.0,5.0,67,0.00,,,0.00,0,Wunderground v.1.15,2013-07-14 02:26:00,
2013-07-13 21:31:00,70.1,58.6,30.20,ENE,78,1.0,1.0,67,0.00,,,0.00,0,Wunderground v.1.15,2013-07-14 02:31:00,
2013-07-13 21:36:00,69.8,59.2,30.20,East,80,0.0,2.0,69,0.00,,,0.00,0,Wunderground v.1.15,2013-07-14 02:36:00,
2013-07-13 21:41:00,69.3,59.5,30.20,East,80,1.0,1.0,71,0.00,,,0.00,0,Wunderground v.1.15,2013-07-14 02:41:00,
2013-07-13 21:46:00,68.9,58.7,30.21,East,80,0.0,2.0,70,0.00,,,0.00,0,Wunderground v.1.15,2013-07-14 02:46:00,
2013-07-13 21:51:00,68.7,58.5,30.21,East,82,0.0,1.0,70,0.00,,,0.00,0,Wunderground v.1.15,2013-07-14 02:51:00,
2013-07-13 21:56:00,68.5,58.7,30.20,East,84,1.0,3.0,71,0.00,,,0.00,0,Wunderground v.1.15,2013-07-14 02:56:00,
2013-07-13 22:01:00,68.3,58.5,30.21,East,84,0.0,2.0,71,0.00,,,0.00,0,Wunderground v.1.15,2013-07-14 03:01:00,
2013-07-13 22:06:00,68.0,58.2,30.21,East,84,0.0,2.0,71,0.00,,,0.00,0,Wunderground v.1.15,2013-07-14 03:06:00,
2013-07-13 22:11:00,67.8,58.8,30.21,East,85,0.0,2.0,73,0.00,,,0.00,0,Wunderground v.1.15,2013-07-14 03:11:00,
2013-07-13 22:16:00,67.4,58.1,30.21,East,85,0.0,2.0,72,0.00,,,0.00,0,Wunderground v.1.15,2013-07-14 03:16:00,
2013-07-13 22:21:00,67.1,58.5,30.21,East,85,0.0,0.0,74,0.00,,,0.00,0,Wunderground v.1.15,2013-07-14 03:21:00,
2013-07-13 22:26:00,66.7,58.1,30.21,East,85,0.0,1.0,74,0.00,,,0.00,0,Wunderground v.1.15,2013-07-14 03:26:00,
2013-07-13 22:31:00,66.5,57.6,30.21,East,87,0.0,1.0,73,0.00,,,0.00,0,Wunderground v.1.15,2013-07-14 03:31:00,
2013-07-13 22:36:00,66.5,57.6,30.21,East,87,0.0,1.0,73,0.00,,,0.00,0,Wunderground v.1.15,2013-07-14 03:36:00,
2013-07-13 22:41:00,66.5,58.0,30.21,East,87,0.0,0.0,74,0.00,,,0.00,0,Wunderground v.1.15,2013-07-14 03:41:00,
2013-07-13 22:46:00,66.3,57.8,30.22,East,87,0.0,1.0,74,0.00,,,0.00,0,Wunderground v.1.15,2013-07-14 03:46:00,
2013-07-13 22:51:00,66.1,57.9,30.22,East,87,0.0,0.0,75,0.00,,,0.00,0,Wunderground v.1.15,2013-07-14 03:51:00,
2013-07-13 22:56:00,65.9,57.7,30.21,East,87,0.0,1.0,75,0.00,,,0.00,0,Wunderground v.1.15,2013-07-14 03:56:00,
2013-07-13 23:01:00,65.7,57.2,30.22,East,87,0.0,1.0,74,0.00,,,0.00,0,Wunderground v.1.15,2013-07-14 04:01:00,
2013-07-13 23:06:00,65.5,57.7,30.22,East,87,0.0,1.0,76,0.00,,,0.00,0,Wunderground v.1.15,2013-07-14 04:06:00,
2013-07-13 23:11:00,65.2,57.1,30.22,East,88,0.0,4.0,75,0.00,,,0.00,0,Wunderground v.1.15,2013-07-14 04:11:00,
2013-07-13 23:16:00,65.1,57.0,30.22,East,88,0.0,4.0,75,0.00,,,0.00,0,Wunderground v.1.15,2013-07-14 04:16:00,
2013-07-13 23:21:00,65.0,57.6,30.22,East,88,0.0,0.0,77,0.00,,,0.00,0,Wunderground v.1.15,2013-07-14 04:21:00,
2013-07-13 23:26:00,64.7,58.0,30.22,East,88,0.0,0.0,79,0.00,,,0.00,0,Wunderground v.1.15,2013-07-14 04:26:00,
2013-07-13 23:31:00,64.3,57.3,30.22,East,88,1.0,1.0,78,0.00,,,0.00,0,Wunderground v.1.15,2013-07-14 04:31:00,
2013-07-13 23:36:00,64.1,57.1,30.22,East,88,0.0,1.0,78,0.00,,,0.00,0,Wunderground v.1.15,2013-07-14 04:36:00,
2013-07-13 23:41:00,64.0,57.0,30.22,East,89,4.0,4.0,78,0.00,,,0.00,0,Wunderground v.1.15,2013-07-14 04:41:00,
2013-07-13 23:46:00,64.0,57.0,30.22,East,94,0.0,6.0,78,0.00,,,0.00,0,Wunderground v.1.15,2013-07-14 04:46:00,
2013-07-13 23:51:00,63.9,57.6,30.22,East,94,0.0,1.0,80,0.00,,,0.00,0,Wunderground v.1.15,2013-07-14 04:51:00,
2013-07-13 23:56:00,63.3,57.0,30.23,East,94,0.0,1.0,80,0.00,,,0.00,0,Wunderground v.1.15,2013-07-14 04:56:00,